Tracking 17884 objects as of 5-December-2016
HD Live streaming from Space Station
objects crossing your sky now

ATLAS CENTAUR DEB

Track ATLAS CENTAUR DEB now!


NORAD ID: 25253
Int'l Code: 1978-068C
Perigee: 896.9 km
Apogee: 35,562.5 km
Inclination: 21.7 °
Period: 640.0 minutes
Semi major axis: 24600 km
RCS: 0.1092 m2 (medium)
Launch date: June 29, 1978
Source: United States (US)
Launch site: AIR FORCE EASTERN TEST RANGE (AFETR)

Note: This is SATELLITE DEBRIS
Your satellite tracking list
Your tracking list is empty





NASA's NSSDC Master Catalog

Two Line Element Set (TLE):
1 25253U 78068C   16336.85078623 -.00000067  00000-0 -77628-3 0  9992
2 25253  21.6885 115.8451 7045670 213.7419 352.9855  2.25002858159497
Source of the keplerian elements: AFSPC